Location: Harbor Side
(32.6101°N, 117.0814°W)
Time: 06:13:55
(UTC+00:00)

Cosmos 1626 - Pass Details

Date: 21 April 2021
Orbit: 488 x 494 km, 82.5° (Epoch: 13 May)

Event Time Altitude Azimuth Distance (km) Brightness Sun altitude
Rises 12:29:23 0° 171° (S) 2,559 5.6 -9.3°
Reaches altitude 10° 12:31:33 10° 164° (SSE) 1,681 4.8 -8.9°
Maximum altitude 12:35:01 41° 93° (E) 725 3.6 -8.2°
Drops below altitude 10° 12:38:31 10° 22° (NNE) 1,690 5.4 -7.5°
Sets 12:40:42 0° 15° (NNE) 2,576 6.3 -7.0°
